Le nostre stazioni meteo in Italia

Pubblicità
Il mio iltempo24.it
Bergamo/Orio al Serio, Italia (16076): Temperatura & dewpoint: 20.08.2019 12:00:00 - 26.08.2019 12:00:00 (CEST)Bergamo/Orio al Serio, Italia (16076): velocità del vento: 20.08.2019 12:00:00 - 26.08.2019 12:00:00 (CEST)Bergamo/Orio al Serio, Italia (16076): direzione del vento: 20.08.2019 12:00:00 - 26.08.2019 12:00:00 (CEST)Bergamo/Orio al Serio, Italia (16076): reduced air pressure: 20.08.2019 12:00:00 - 26.08.2019 12:00:00 (CEST)Bergamo/Orio al Serio, Italia (16076): visibility: 20.08.2019 12:00:00 - 26.08.2019 12:00:00 (CEST)Bergamo/Orio al Serio, Italia (16076): precipitazioni: 20.08.2019 12:00:00 - 26.08.2019 12:00:00 (CEST)
Data & Tempo tt [°C] td [°C] ff [km/h] ff [kn] dd ppp [hPa] vv [km] rr [mm]
26.08.2019 12:00:00 27,0 18,0 8 4 OSO - 10 -
26.08.2019 11:00:00 26,2 16,9 5 3 ONO 1019,9 10 0,0
26.08.2019 10:00:00 25,0 17,0 4 2 - - 10 -
26.08.2019 09:00:00 22,0 17,0 8 4 N - 10 -
26.08.2019 08:00:00 20,7 17,9 5 3 N 1019,4 10 -
26.08.2019 07:00:00 20,0 17,0 4 2 - - 10 -
26.08.2019 06:00:00 20,0 18,0 8 4 NNE - 10 -
26.08.2019 05:00:00 20,0 17,2 8 4 NNE 1018,8 10 0,0
26.08.2019 04:00:00 21,0 18,0 5 3 NE - 10 -
26.08.2019 03:00:00 21,0 17,0 9 5 N - 10 -
26.08.2019 02:00:00 21,3 17,3 9 5 N 1019,2 10 -
26.08.2019 01:00:00 22,0 18,0 9 5 N - 10 -
26.08.2019 00:00:00 22,0 17,0 9 5 N - 10 -
25.08.2019 23:00:00 23,0 16,7 9 5 N 1019,6 10 0,0
25.08.2019 22:00:00 23,0 18,0 13 7 N - 10 -
25.08.2019 21:00:00 22,0 21,0 9 5 N - 10 -
25.08.2019 20:00:00 21,4 19,9 15 8 N 1018,3 4,0 -
25.08.2019 19:00:00 29,0 17,0 13 7 S - 10 -
25.08.2019 18:00:00 30,0 16,0 4 2 - - 10 -
25.08.2019 17:00:00 29,6 17,8 8 4 OSO 1017,3 10 0,0
25.08.2019 16:00:00 29,0 18,0 9 5 O - 10 -
25.08.2019 15:00:00 29,0 18,0 9 5 - - 10 -
25.08.2019 14:00:00 28,0 18,1 8 4 - 1018,8 10 -
25.08.2019 13:00:00 28,0 18,0 4 2 - - 10 -
25.08.2019 12:00:00 26,0 17,0 5 3 S - 10 -
25.08.2019 11:00:00 25,3 16,7 8 4 S 1019,8 10 0,0
25.08.2019 10:00:00 24,0 17,0 2 1 - - 10 -
25.08.2019 09:00:00 22,0 18,0 4 2 - - 10 -
25.08.2019 08:00:00 20,7 17,9 4 2 - 1018,8 10 -
25.08.2019 07:00:00 19,0 18,0 4 2 - - 10 -
25.08.2019 06:00:00 19,0 17,0 4 2 - - 10 -
25.08.2019 05:00:00 19,1 18,1 2 1 - 1018,8 10 0,0
25.08.2019 04:00:00 21,0 18,0 8 4 N - 10 -
25.08.2019 03:00:00 21,0 17,0 8 4 NNO - 10 -
25.08.2019 02:00:00 20,6 18,3 2 1 - 1019,9 10 -
25.08.2019 01:00:00 22,0 18,0 5 3 E - 10 -
25.08.2019 00:00:00 22,0 19,0 5 3 ENE - 10 -
24.08.2019 23:00:00 22,1 18,8 5 3 N 1019,5 10 0,0
24.08.2019 22:00:00 23,0 19,0 5 3 N - 10 -
24.08.2019 21:00:00 24,0 18,0 2 1 - - 10 -
24.08.2019 20:00:00 26,2 18,2 5 3 E 1018,1 10 -
24.08.2019 19:00:00 28,0 19,0 8 4 ENE - 10 -
24.08.2019 18:00:00 29,0 17,0 5 3 NE - 10 -
24.08.2019 17:00:00 28,9 16,0 13 7 O 1018,7 10 0,0
24.08.2019 16:00:00 29,0 16,0 11 6 O - 10 -
24.08.2019 15:00:00 29,0 16,0 8 4 SSO - 10 -
24.08.2019 14:00:00 27,9 17,7 11 6 O 1019,9 10 -
24.08.2019 13:00:00 27,0 18,0 13 7 O - 10 -
24.08.2019 12:00:00 27,0 18,0 8 4 - - 10 -
24.08.2019 11:00:00 25,6 16,4 2 1 - 1021,1 10 0,0
24.08.2019 10:00:00 23,0 19,0 4 2 - - 10 -
24.08.2019 09:00:00 22,0 19,0 4 2 - - 10 -
24.08.2019 08:00:00 20,2 19,0 8 4 NNE 1021,3 10 -
24.08.2019 07:00:00 19,0 19,0 4 2 - - 10 -
24.08.2019 06:00:00 19,0 19,0 2 1 - - 10 -
24.08.2019 05:00:00 20,1 18,2 8 4 NNE 1021,0 10 0,0
24.08.2019 04:00:00 21,0 18,0 8 4 N - 10 -
24.08.2019 03:00:00 21,0 18,0 8 4 N - 10 -
24.08.2019 02:00:00 19,4 18,3 8 4 - 1022,0 10 -
24.08.2019 01:00:00 21,0 20,0 8 4 N - 10 -
24.08.2019 00:00:00 20,0 20,0 5 3 NNE - 10 -
23.08.2019 23:00:00 20,8 20,8 5 3 NNE 1021,9 10 0,0
23.08.2019 22:00:00 22,0 21,0 4 2 N - 10 -
23.08.2019 21:00:00 22,0 20,0 5 3 NNE - 10 -
23.08.2019 20:00:00 23,1 20,1 2 1 - 1021,4 10 -
23.08.2019 19:00:00 25,0 19,0 8 4 SO - 10 -
23.08.2019 18:00:00 25,0 19,0 5 3 SO - 10 -
23.08.2019 17:00:00 25,0 19,7 9 5 OSO 1021,6 10 0,0
23.08.2019 16:00:00 25,0 20,0 8 4 O - 8 -
23.08.2019 15:00:00 25,0 20,0 8 4 NO - 9 -
23.08.2019 14:00:00 25,3 18,2 4 2 - 1022,7 8 -
23.08.2019 13:00:00 26,0 17,0 4 2 - - 10 -
23.08.2019 12:00:00 25,0 19,0 9 5 ESE - 10 -
23.08.2019 11:00:00 23,9 19,5 4 2 - 1023,2 10 0,0
23.08.2019 10:00:00 21,0 21,0 9 5 NNE - 9 -
23.08.2019 09:00:00 19,0 18,0 11 6 - - 5 -
23.08.2019 08:00:00 20,8 18,7 8 4 NE 1022,6 8 -
23.08.2019 07:00:00 20,0 20,0 4 2 NNE - 10 -
23.08.2019 06:00:00 20,0 19,0 4 2 - - 10 -
23.08.2019 05:00:00 20,4 18,0 8 4 N 1021,4 10 0,0
23.08.2019 04:00:00 20,0 18,0 5 3 N - 10 -
23.08.2019 03:00:00 20,0 18,0 8 4 N - 10 -
23.08.2019 02:00:00 20,0 18,1 8 4 N 1021,8 10 -
23.08.2019 01:00:00 20,0 18,0 9 5 N - 10 -
23.08.2019 00:00:00 21,0 18,0 9 5 N - 10 -
22.08.2019 23:00:00 21,2 18,0 8 4 NNE 1022,0 10 0,0
22.08.2019 22:00:00 21,0 19,0 8 4 N - 10 -
22.08.2019 21:00:00 24,0 18,0 5 3 N - 10 -
22.08.2019 20:00:00 26,1 16,0 8 4 S 1020,8 10 -
22.08.2019 19:00:00 26,0 16,0 13 7 S - 10 -
22.08.2019 18:00:00 28,0 16,0 5 3 OSO - 10 -
22.08.2019 17:00:00 28,3 15,9 9 5 SO 1020,5 10 0,0
22.08.2019 16:00:00 28,0 16,0 9 5 ONO - 10 -
22.08.2019 15:00:00 27,0 15,0 9 5 SSO - 10 -
22.08.2019 14:00:00 27,6 15,4 5 3 - 1022,3 10 -
22.08.2019 13:00:00 26,0 15,0 5 3 - - 10 -
22.08.2019 12:00:00 25,0 16,0 8 4 E - 10 -
22.08.2019 11:00:00 22,7 16,6 4 2 - 1023,0 10 0,0
22.08.2019 10:00:00 21,0 16,0 9 5 NE - 10 -
22.08.2019 09:00:00 20,0 17,0 9 5 N - 10 -
22.08.2019 08:00:00 19,9 15,6 11 6 N 1022,2 9 -
22.08.2019 07:00:00 21,0 15,0 11 6 NNO - 10 -
22.08.2019 06:00:00 22,0 15,0 13 7 N - 10 -
22.08.2019 05:00:00 21,6 15,3 16 9 N 1021,7 10 0,0
22.08.2019 04:00:00 22,0 14,0 15 8 NNE - 10 -
22.08.2019 03:00:00 22,0 16,0 16 9 NNE - 10 -
22.08.2019 02:00:00 21,2 18,1 15 8 NNE 1021,5 10 -
22.08.2019 01:00:00 - - - - - - - -
22.08.2019 00:00:00 22,0 21,0 16 9 ONO - 5 -
21.08.2019 23:00:00 24,0 20,0 8 4 N - 10 -
21.08.2019 22:00:00 24,0 20,0 8 4 N - 10 -
21.08.2019 21:00:00 25,0 20,0 8 4 N - 10 -
21.08.2019 20:00:00 28,6 16,5 8 4 S 1018,7 10 -
21.08.2019 19:00:00 30,0 17,0 5 3 S - 10 -
21.08.2019 18:00:00 30,0 18,0 5 3 - - 10 -
21.08.2019 17:00:00 30,1 16,5 8 4 SE 1018,3 10 0,0
21.08.2019 16:00:00 30,0 18,0 5 3 - - 10 -
21.08.2019 15:00:00 29,0 18,0 4 2 - - 10 -
21.08.2019 14:00:00 28,4 18,5 5 3 - 1019,3 10 -
21.08.2019 13:00:00 28,0 17,0 8 4 ONO - 10 -
21.08.2019 12:00:00 27,0 17,0 4 2 - - 10 -
21.08.2019 11:00:00 26,3 18,6 5 3 - 1019,9 10 0,0
21.08.2019 10:00:00 24,0 19,0 4 2 - - 10 -
21.08.2019 09:00:00 22,0 20,0 4 2 N - 10 -
21.08.2019 08:00:00 21,8 19,4 4 2 - 1018,9 10 -
21.08.2019 07:00:00 21,0 20,0 4 2 NE - 10 -
21.08.2019 06:00:00 21,0 19,0 9 5 N - 10 -
21.08.2019 05:00:00 21,1 18,7 8 4 N 1017,7 10 0,0
21.08.2019 04:00:00 22,0 18,0 5 3 N - 10 -
21.08.2019 03:00:00 21,0 19,0 5 3 N - 10 -
21.08.2019 02:00:00 22,0 19,0 8 4 NNE - 10 -
21.08.2019 01:00:00 22,0 20,0 4 2 - - 10 -
21.08.2019 00:00:00 22,0 20,0 9 5 NE - 10 -
20.08.2019 23:00:00 22,0 19,0 13 7 NNE - 10 -
20.08.2019 22:00:00 21,0 21,0 29 16 NO - 8 -
20.08.2019 21:00:00 26,0 19,0 5 3 N - 10 -
20.08.2019 20:00:00 28,0 18,0 5 3 SSO - 10 -
20.08.2019 19:00:00 29,0 16,0 13 7 SSE - 10 -
20.08.2019 18:00:00 29,0 18,0 13 7 SE - 10 -
20.08.2019 17:00:00 29,9 17,5 13 7 SSE 1017,3 10 0,0
20.08.2019 16:00:00 29,0 18,0 13 7 SE - 10 -
20.08.2019 15:00:00 29,0 18,0 15 8 SE - 10 -
20.08.2019 14:00:00 29,0 19,0 9 5 SE - 10 -
20.08.2019 13:00:00 28,0 19,0 9 5 ESE - 10 -
20.08.2019 12:00:00 26,0 20,0 8 4 ESE - 10 -

tt = Temperatura
td = dewpoint
ff = velocità del vento
dd = direzione del vento
ppp = reduced air pressure
vv = visibility
rr = precipitazioni

Stazioni seguenti

WeatherPro
AMSI
MeteoEarth